FW8548 Weather Reports


Display with metric or nautical units.
time (UTC)temp
F
wind
direction
speed
MPH
gust
MPH
rain 1hr
in
rain 24hr
in
rain mn
in
humidity
%
barometer
mb
20260506094547 53 311 0.0 3.0 0.00 1.47 0.00 89 1019.8
20260506093039 53 0 2.0 5.0 0.00 1.47 0.00 89 1019.7
20260506091543 53 328 1.0 5.0 0.00 1.47 0.00 88 1019.7
20260506090041 53 0 0.0 6.0 0.00 1.47 0.00 88 1019.7
20260506084542 0 0 0.0 2.0 0.00 1.50 0.00 1019.7
20260506083037 54 0 0.0 1.0 0.00 1.50 0.00 100 1019.7
20260506081535 54 0 0.0 3.0 0.00 1.50 0.00 100 1019.8
20260506073040 54 0 0.0 1.0 0.00 1.54 0.00 100 1019.6
20260506071538 54 337 0.0 3.0 0.00 1.54 0.00 100 1019.5
20260506061539 54 0 0.0 2.0 0.00 1.56 1.54 100 1019.1
20260506044541 55 303 0.0 6.0 0.00 1.61 1.54 100 1018.6
20260506043036 54 0 0.0 4.0 0.00 1.61 1.54 100 1018.5
20260506041541 54 316 0.0 2.0 0.00 1.61 1.54 100 1018.4
20260506040042 55 310 1.0 5.0 0.00 1.61 1.54 100 1018.0
20260506034539 55 277 0.0 6.0 0.00 1.61 1.54 100 1017.9
20260506033037 55 285 0.0 4.0 0.00 1.61 1.54 100 1017.7
20260506031549 55 0 0.0 5.0 0.00 1.61 1.54 100 1017.5
20260506030041 55 293 1.0 5.0 0.00 1.61 1.54 100 1017.3
20260506024550 55 315 3.0 7.0 0.00 1.61 1.54 100 1017.2
20260506023038 55 293 1.0 5.0 0.00 1.61 1.54 100 1017.1
20260506021538 56 292 3.0 10.0 0.00 1.61 1.54 6 1016.9
20260506020036 56 297 2.0 8.0 0.00 1.61 1.54 100 1016.8
20260506014542 57 285 2.0 8.0 0.00 1.61 1.54 2 1016.8
20260506013040 57 284 1.0 9.0 0.00 1.61 1.54 13 1016.9
20260506011537 57 64 3.0 10.0 0.00 1.61 1.54 38 1016.9
20260506010036 58 287 1.0 9.0 0.00 1.61 1.54 48 1016.8
20260506004541 58 309 4.0 13.0 0.00 1.61 1.54 49 1016.7
20260506003042 60 330 4.0 10.0 0.00 1.61 1.54 56 1016.6
20260506001542 59 322 1.0 12.0 0.00 1.61 1.54 49 1016.4
20260506000040 59 339 4.0 12.0 0.00 1.61 1.54 53 1016.4
20260505234544 58 186 3.0 10.0 0.00 1.61 1.54 80 1016.4
20260505233042 58 168 8.0 16.0 0.00 1.61 1.54 78 1016.5
20260505231551 59 246 5.0 17.0 0.00 1.61 1.54 77 1016.5
20260505230053 59 199 4.0 14.0 0.00 1.61 1.54 78 1016.4
20260505224540 60 174 3.0 11.0 0.00 1.61 1.54 76 1016.4
20260505223036 59 0 2.0 13.0 0.00 1.61 1.54 80 1016.4
20260505221538 58 205 6.0 12.0 0.00 1.61 1.54 80 1016.6
20260505220040 58 200 7.0 14.0 0.00 1.61 1.54 79 1016.7
20260505214537 58 207 6.0 13.0 0.00 1.61 1.54 81 1016.9
20260505213047 60 208 5.0 12.0 0.00 1.61 1.54 77 1016.9
20260505211536 60 237 4.0 12.0 0.00 1.61 1.54 77 1017.0
20260505210037 60 187 2.0 10.0 0.00 1.61 1.54 75 1017.0
20260505204539 60 219 3.0 12.0 0.00 1.61 1.54 76 1016.9
20260505203039 60 238 3.0 12.0 0.00 1.61 1.54 74 1016.9
20260505201538 61 238 4.0 12.0 0.00 1.61 1.54 72 1016.9
20260505200108 61 298 3.0 13.0 0.00 1.61 1.54 74 1016.8
20260505194542 61 221 2.0 12.0 0.00 1.61 1.54 74 1017.0
20260505193039 60 290 4.0 12.0 0.00 1.61 1.54 77 1017.1
20260505191539 60 34 2.0 7.0 0.00 1.61 1.54 79 1017.2
20260505190036 58 184 2.0 11.0 0.00 1.61 1.54 81 1016.8
20260505184535 57 316 3.0 11.0 0.00 1.61 1.54 82 1016.9
20260505183038 58 331 3.0 10.0 0.00 1.61 1.54 80 1016.9
20260505181540 58 352 3.0 8.0 0.00 1.61 1.54 84 1016.9
20260505180047 57 359 1.0 6.0 0.00 1.61 1.54 88 1016.6
20260505174541 56 309 2.0 7.0 0.00 1.61 1.54 90 1016.5
20260505173035 56 273 1.0 6.0 0.00 1.61 1.54 91 1016.5
20260505171544 55 13 2.0 7.0 0.00 1.61 1.54 91 1016.4
20260505170040 54 291 2.0 7.0 0.00 1.61 1.54 92 1016.4
20260505164539 54 302 1.0 7.0 0.00 1.61 1.54 92 1016.4
20260505163034 54 240 1.0 10.0 0.00 1.61 1.54 93 1016.5
20260505161545 53 328 1.0 7.0 0.00 1.61 1.54 93 1016.3
20260505153036 53 331 0.0 6.0 0.00 1.61 1.54 93 1015.9
20260505151541 53 18 0.0 8.0 0.00 1.61 1.54 92 1015.9
20260505124541 52 221 5.0 9.0 0.00 1.61 1.54 91 1015.2
20260505123040 51 167 1.0 8.0 0.00 1.61 1.54 91 1015.2
20260505121539 51 207 3.0 11.0 0.00 1.61 1.54 91 1015.2
20260505120036 51 205 4.0 10.0 0.00 1.61 1.54 91 1015.1
20260505114541 51 245 4.0 9.0 0.00 1.61 1.54 91 1015.2
20260505113041 51 164 5.0 11.0 0.00 1.61 1.54 90 1015.3
20260505111537 51 161 1.0 10.0 0.00 1.61 1.54 91 1015.3
20260505101556 51 0 1.0 9.0 1.47 1.61 1.54 92 1015.3
20260505100055 51 0 1.0 7.0 1.47 1.61 1.54 92 1015.6